RS-15 - Orbit

View from above orbital plane
View from above orbital plane
View from above satellite
View from above satellite

Ground track
Ground track

The orbit data is extracted from the following two-line orbital elements,

1 23439U 94085A   13136.15255842 -.00000039  00000-0  10000-3 0  5772
2 23439 064.8129 113.7871 0153214 159.0206 201.7093 11.27558770757239
Epoch (UTC): 16 May 2013 03:39:41
Eccentricity: 0.0153214
inclination: 64.8129°
perigee height: 1894 km
apogee height: 2151 km
right ascension of ascending node: 113.7871°
argument of perigee: 159.0206°
revolutions per day: 11.27558770
mean anomaly at epoch: 201.7093°
orbit number at epoch: 75723

The dashed part of the orbit path shows where the satellite is in the earth's shadow,  

Developed and maintained by Chris Peat, Heavens-Above GmbH. Please read the updated FAQ before sending e-mail. Imprint. DLR